TimeCST,TemperatureF,Dew PointF,Humidity,Sea Level PressureIn,VisibilityMPH,Wind Direction,Wind SpeedMPH,Gust SpeedMPH,PrecipitationIn,Events,Conditions,WindDirDegrees,DateUTC
12:13 AM,21.2,15.8,80,29.75,10.0,NNW,10.4,-,N/A,,Clear,340,2013-01-30 06:13:00
12:33 AM,21.2,17.6,86,29.75,10.0,North,6.9,-,N/A,,Scattered Clouds,350,2013-01-30 06:33:00
12:53 AM,21.2,17.6,86,29.74,10.0,North,4.6,-,N/A,,Mostly Cloudy,360,2013-01-30 06:53:00
1:13 AM,21.2,17.6,86,29.72,10.0,North,4.6,-,N/A,,Overcast,350,2013-01-30 07:13:00
1:33 AM,21.2,17.6,86,29.70,10.0,NNW,12.7,16.1,N/A,,Mostly Cloudy,340,2013-01-30 07:33:00
1:53 AM,21.2,17.6,86,29.71,10.0,North,9.2,16.1,N/A,,Mostly Cloudy,350,2013-01-30 07:53:00
2:13 AM,21.2,17.6,86,29.70,10.0,North,8.1,19.6,N/A,,Mostly Cloudy,350,2013-01-30 08:13:00
2:53 AM,23.0,17.6,80,29.69,10.0,NNW,10.4,-,N/A,,Overcast,340,2013-01-30 08:53:00
3:13 AM,21.2,17.6,86,29.69,10.0,NNW,11.5,16.1,N/A,Snow,Light Snow,330,2013-01-30 09:13:00
3:33 AM,21.2,17.6,86,29.70,10.0,NNW,15.0,-,N/A,,Overcast,330,2013-01-30 09:33:00
3:53 AM,21.2,15.8,80,29.69,10.0,NNW,15.0,-,N/A,,Overcast,330,2013-01-30 09:53:00
4:13 AM,21.2,14.0,74,29.70,10.0,NNW,8.1,17.3,N/A,,Overcast,340,2013-01-30 10:13:00
4:33 AM,19.4,14.0,80,29.71,10.0,NNW,11.5,18.4,N/A,,Overcast,340,2013-01-30 10:33:00
4:53 AM,19.4,14.0,80,29.70,10.0,NNW,13.8,21.9,N/A,,Overcast,330,2013-01-30 10:53:00
5:13 AM,19.4,12.2,74,29.69,10.0,NW,12.7,18.4,N/A,Snow,Light Snow,320,2013-01-30 11:13:00
5:53 AM,17.6,12.2,79,29.68,10.0,NNW,17.3,21.9,N/A,,Overcast,330,2013-01-30 11:53:00
6:13 AM,17.6,10.4,73,29.70,10.0,NNW,13.8,19.6,N/A,,Overcast,340,2013-01-30 12:13:00
6:33 AM,17.6,10.4,73,29.70,10.0,NW,10.4,-,N/A,Snow,Light Snow,320,2013-01-30 12:33:00
6:53 AM,15.8,10.4,79,29.69,10.0,NW,15.0,-,N/A,Snow,Light Snow,320,2013-01-30 12:53:00
7:13 AM,14.0,8.6,79,29.69,10.0,NNW,13.8,-,N/A,Snow,Light Snow,330,2013-01-30 13:13:00
7:33 AM,14.0,8.6,79,29.69,10.0,NNW,13.8,23.0,N/A,,Overcast,330,2013-01-30 13:33:00
7:53 AM,14.0,8.6,79,29.67,10.0,NNW,15.0,-,N/A,,Overcast,330,2013-01-30 13:53:00
8:13 AM,14.0,8.6,79,29.67,10.0,NNW,15.0,23.0,N/A,,Overcast,340,2013-01-30 14:13:00
8:33 AM,14.0,8.6,79,29.67,10.0,NNW,12.7,19.6,N/A,,Overcast,340,2013-01-30 14:33:00
8:53 AM,14.0,8.6,79,29.70,10.0,North,8.1,17.3,N/A,,Overcast,360,2013-01-30 14:53:00
9:13 AM,14.0,8.6,79,29.69,10.0,NNW,11.5,19.6,N/A,,Overcast,340,2013-01-30 15:13:00
9:33 AM,14.0,6.8,73,29.68,10.0,NNW,13.8,-,N/A,Snow,Light Snow,340,2013-01-30 15:33:00
9:53 AM,14.0,6.8,73,29.68,10.0,NNW,13.8,20.7,N/A,Snow,Light Snow,330,2013-01-30 15:53:00
10:10 AM,14.0,6.8,73,29.68,10.0,North,9.2,17.3,N/A,Snow,Light Snow,350,2013-01-30 16:10:00
10:33 AM,14.0,6.8,73,29.68,7.0,NNW,11.5,18.4,N/A,Snow,Light Snow,340,2013-01-30 16:33:00
10:53 AM,14.0,6.8,73,29.69,5.0,NNW,13.8,19.6,N/A,Snow,Light Snow,330,2013-01-30 16:53:00
11:13 AM,14.0,6.8,73,29.68,5.0,NNW,13.8,-,N/A,Snow,Light Snow,330,2013-01-30 17:13:00
11:33 AM,14.0,5.0,67,29.67,10.0,NNW,15.0,20.7,N/A,Snow,Light Snow,330,2013-01-30 17:33:00
11:53 AM,14.0,5.0,67,29.67,7.0,NNW,12.7,-,N/A,,Overcast,330,2013-01-30 17:53:00
12:13 PM,14.0,5.0,67,29.66,10.0,NNW,19.6,25.3,N/A,,Overcast,330,2013-01-30 18:13:00
12:33 PM,14.0,5.0,67,29.67,10.0,NNW,18.4,24.2,N/A,,Overcast,340,2013-01-30 18:33:00
12:53 PM,14.0,5.0,67,29.67,10.0,NNW,17.3,24.2,N/A,,Overcast,330,2013-01-30 18:53:00
1:13 PM,14.0,5.0,67,29.66,7.0,NNW,18.4,25.3,N/A,,Overcast,330,2013-01-30 19:13:00
1:33 PM,14.0,5.0,67,29.66,10.0,North,12.7,21.9,N/A,,Overcast,350,2013-01-30 19:33:00
1:53 PM,14.0,5.0,67,29.66,2.5,NNW,13.8,-,N/A,Snow,Light Snow,330,2013-01-30 19:53:00
2:13 PM,14.0,5.0,67,29.65,10.0,NNW,18.4,25.3,N/A,,Overcast,340,2013-01-30 20:13:00
2:33 PM,14.0,5.0,67,29.65,10.0,NNW,13.8,20.7,N/A,,Overcast,330,2013-01-30 20:33:00
2:53 PM,14.0,5.0,67,29.65,7.0,NW,20.7,26.5,N/A,,Overcast,320,2013-01-30 20:53:00
3:13 PM,14.0,5.0,67,29.66,10.0,NNW,13.8,24.2,N/A,,Overcast,330,2013-01-30 21:13:00
3:33 PM,14.0,5.0,67,29.66,10.0,NNW,15.0,19.6,N/A,,Overcast,330,2013-01-30 21:33:00
3:53 PM,14.0,5.0,67,29.67,10.0,NNW,12.7,26.5,N/A,,Overcast,340,2013-01-30 21:53:00
4:13 PM,14.0,5.0,67,29.66,10.0,NNW,16.1,20.7,N/A,,Overcast,330,2013-01-30 22:13:00
4:33 PM,14.0,5.0,67,29.66,10.0,NW,16.1,21.9,N/A,,Overcast,320,2013-01-30 22:33:00
4:53 PM,14.0,5.0,67,29.67,10.0,NW,13.8,21.9,N/A,,Overcast,320,2013-01-30 22:53:00
5:13 PM,14.0,5.0,67,29.67,10.0,NW,13.8,21.9,N/A,,Overcast,320,2013-01-30 23:13:00
5:33 PM,12.2,5.0,73,29.67,10.0,NW,16.1,25.3,N/A,,Overcast,320,2013-01-30 23:33:00
5:53 PM,12.2,3.2,67,29.68,10.0,NW,16.1,24.2,N/A,,Overcast,320,2013-01-30 23:53:00
6:13 PM,12.2,3.2,67,29.69,10.0,NNW,15.0,25.3,N/A,,Overcast,330,2013-01-31 00:13:00
6:33 PM,12.2,3.2,67,29.68,10.0,NW,18.4,24.2,N/A,,Overcast,320,2013-01-31 00:33:00
6:53 PM,12.2,3.2,67,29.68,10.0,NNW,19.6,-,N/A,,Overcast,330,2013-01-31 00:53:00
7:13 PM,12.2,3.2,67,29.69,10.0,NW,17.3,20.7,N/A,,Mostly Cloudy,320,2013-01-31 01:13:00
7:33 PM,10.4,1.4,67,29.69,10.0,NNW,12.7,17.3,N/A,,Mostly Cloudy,330,2013-01-31 01:33:00
7:53 PM,10.4,3.2,73,29.69,10.0,NW,16.1,19.6,N/A,,Overcast,320,2013-01-31 01:53:00
8:13 PM,12.2,3.2,67,29.68,10.0,NW,12.7,18.4,N/A,,Overcast,320,2013-01-31 02:13:00
8:33 PM,12.2,3.2,67,29.68,10.0,NNW,15.0,20.7,N/A,,Overcast,330,2013-01-31 02:33:00
8:53 PM,10.4,3.2,73,29.69,10.0,NW,12.7,19.6,N/A,,Overcast,310,2013-01-31 02:53:00
9:13 PM,10.4,1.4,67,29.69,10.0,NW,17.3,20.7,N/A,,Overcast,320,2013-01-31 03:13:00
9:33 PM,10.4,1.4,67,29.70,10.0,NW,13.8,20.7,N/A,,Overcast,320,2013-01-31 03:33:00
9:53 PM,10.4,1.4,67,29.70,10.0,NW,13.8,20.7,N/A,,Overcast,320,2013-01-31 03:53:00
10:13 PM,10.4,1.4,67,29.70,10.0,NW,13.8,20.7,N/A,,Overcast,320,2013-01-31 04:13:00
10:33 PM,10.4,1.4,67,29.70,10.0,NW,16.1,20.7,N/A,,Overcast,320,2013-01-31 04:33:00
10:53 PM,10.4,1.4,67,29.70,10.0,NW,15.0,20.7,N/A,,Overcast,320,2013-01-31 04:53:00
11:13 PM,8.6,1.4,73,29.71,10.0,NW,11.5,-,N/A,,Overcast,310,2013-01-31 05:13:00
11:33 PM,8.6,1.4,73,29.71,10.0,NW,12.7,20.7,N/A,,Overcast,320,2013-01-31 05:33:00
11:53 PM,8.6,1.4,73,29.72,10.0,NW,12.7,-,N/A,,Overcast,320,2013-01-31 05:53:00